Location: Santa Cristina
(46.5667°N, 11.7167°E)
Time: 03:10:50
(UTC+00:00)

USA 307 - Pass Details

Date: 21 April 2021
Orbit: 566 x 577 km, 54.0° (Epoch: 07 May)

Event Time Altitude Azimuth Distance (km) Brightness Sun altitude
Rises 03:11:34 0° 301° (WNW) 2,789 6.1 -10.8°
Reaches altitude 10° 03:13:53 10° 307° (NW) 1,890 5.3 -10.4°
Maximum altitude 03:18:04 48° 22° (NNE) 761 3.9 -9.8°
Drops below altitude 10° 03:22:14 10° 98° (E) 1,887 6.4 -9.2°
Sets 03:24:33 0° 104° (ESE) 2,784 7.2 -8.8°
